Retour au catalogue

COSMOS 860 COOLANT

ActifLEO
NORAD 29195·DEBRIS·🇷🇺 Russia

Lancé Oct 17, 1976 depuis Baikonur Cosmodrome

Loading…

Prochains Passages (prochaines 24 heures)

TLE

VieillissantSource: Space-Track

Époque: Sep 11, 2026, 06:52 UTC

1 29195U 76103H   26254.28646960  .00000096  00000-0  15770-3 0  9991
2 29195  64.6973 135.7647 0052048 178.5055 181.6169 13.87326719651614

Suivez COSMOS 860 COOLANT en temps réel avec AllMySat

Download on the App Store